Regional Weather Roundup
Issued by NWS

Home | Current Version | Previous Version | Graphics & Text | Print | Product List | Glossary Off
Versions: 1 2 3 4 5 6 7 8 9 10 11 12 13 14 15 16 17 18 19 20 21 22 23 24 25 26 27 28 29 30 31 32 33 34 35 36 37 38 39 40 41 42 43 44 45 46 47 48 49 50

000
ASUS43 KMPX 071601
RWRMN
WEATHER ROUNDUP FOR MINNESOTA
NATIONAL WEATHER SERVICE TWIN CITIES/CHANHASSEN MN
1100 AM CDT TUE JUL 07 2015


NOTE: "FAIR" INDICATES FEW OR NO CLOUDS BELOW 12,000 FEET WITH NO
SIGNIFICANT WEATHER AND/OR OBSTRUCTIONS TO VISIBILITY. N/A MEANS
CURRENT SKY AND/OR WEATHER CONDITIONS ARE NOT AVAILABLE.

MNZ060>063-068>070-071700-
   Twin Cities Metro

CITY           SKY/WX    TMP DP  RH WIND       PRES   REMARKS
TWIN CITIES    MOSUNNY   64  45  49 N14       30.16F
ST PAUL        SUNNY     64  46  52 N9        30.17S
CRYSTAL        SUNNY     65  44  46 MISG      30.16F
BLAINE         MOSUNNY   64  46  52 N13       30.17S
LAKEVILLE      SUNNY     61  45  55 N10G18    30.16F
EDEN PRAIRIE   SUNNY     64  45  49 N10       30.16S
SOUTH ST PAUL  MOSUNNY   64  44  49 N9        30.16S
LAKE ELMO      FAIR      61  46  59 NW8       30.17S
$$
MNZ001>005-007-008-013>017-022>024-027-028-071700-
   Northwest Minnesota

CITY           SKY/WX    TMP DP  RH WIND       PRES   REMARKS
BEMIDJI        SUNNY     64  45  51 N9        30.18F
HALLOCK        SUNNY     66  48  52 SW10      30.16F
ROSEAU         SUNNY     66  52  59 W9        30.16F
WARROAD        SUNNY     64  52  63 SW8       30.16F
THIEF RVR FALL SUNNY     63  46  55 W8        30.19F
CROOKSTON      SUNNY     64  48  55 W6        30.19F
FOSSTON        SUNNY     63  46  55 W3        30.20S
DETROIT LAKES  SUNNY     63  41  45 N3        30.21F
MOORHEAD       SUNNY     63  45  51 CALM      30.20F
PARK RAPIDS    SUNNY     65  41  41 VRB3      30.19S
MAHNOMEN       FAIR      63  46  54 NW5       30.19F
$$
MNZ006-009>011-018-025>026-071700-
   North Central Minnesota

CITY           SKY/WX    TMP DP  RH WIND       PRES   REMARKS
BAUDETTE       SUNNY     65  48  54 NW7       30.16S
FLAG ISLAND    SUNNY     63  45  51 NW7       30.14F
INTL FALLS     SUNNY     67  43  41 N9        30.15S
WASKISH        SUNNY     64  46  52 W5        30.17S
BIG FORK       SUNNY     64  43  45 NW6       30.17S
LONGVILLE      MOSUNNY   63  45  51 N6        30.18S
GRAND RAPIDS   PTSUNNY   63  43  48 N7        30.18S
CRANE LAKE     SUNNY     63  46  55 N3        30.16S
COOK           MOSUNNY   63  43  48 N3        30.15S
WALKER         FAIR      61  45  54 N5        30.18S
$$
MNZ012-019>021-037-071700-
   Northeast Minnesota

CITY           SKY/WX    TMP DP  RH WIND       PRES   REMARKS
DULUTH         MOSUNNY   64  44  48 N7G17     30.15S
ELY            MOSUNNY   63  43  48 NW8       30.14S
HIBBING        SUNNY     65  43  44 NW13G18   30.16S
DULUTH HARBOR    N/A     64  48  55 E3        30.16S
TWO HARBORS    MOSUNNY   66  48  52 NE6       30.13S
SILVER BAY     MOSUNNY   64  45  48 N5        30.12S
GRAND MARAIS     N/A     67  42  40 N8G16     30.09F
G MARAIS ARPRT SUNNY     61  41  48 N13       30.12S
$$
MNZ029>031-032-039>041-046>048-054>057-064-071700-
   West Central Minnesota

CITY           SKY/WX    TMP DP  RH WIND       PRES   REMARKS
FERGUS FALLS   SUNNY     64  45  48 N6        30.20F
WHEATON        SUNNY     63  45  51 CALM      30.23S
MORRIS         SUNNY     64  46  52 N6        30.20S
ALEXANDRIA     SUNNY     64  43  46 N8        30.22S
ELBOW LAKE     FAIR      63  44  49 N3        30.20F
WADENA         SUNNY     63  41  45 NW6       30.20S
GLENWOOD       SUNNY     64  45  48 N6        30.21S
APPLETON       MOSUNNY   66  45  45 N9        30.20S
BENSON         PTSUNNY   66  45  45 E8        30.21S
ORTONVILLE     SUNNY     63  43  48 NE3       30.21F
MADISON        SUNNY     64  45  48 E9        30.21S
WILLMAR        FAIR      64  46  52 NE9       30.21S
$$
MNZ033>034-036-042>043-049>051-058-059-071700-
   Central Minnesota

CITY           SKY/WX    TMP DP  RH WIND       PRES   REMARKS
ST CLOUD       MOSUNNY   63  44  50 N7        30.19S
SAUK CENTRE    PTSUNNY   61  45  54 N7        30.20F
PAYNESVILLE    MOSUNNY   61  45  55 NW8       30.20F
AITKIN         PTSUNNY   64  45  48 N6        30.17S
PINE RIVER     MOSUNNY   61  46  59 N5        30.21F
BRAINERD       MOSUNNY   64  45  49 NE7       30.19S
STAPLES        SUNNY     63  43  48 N5        30.20S
LONG PRAIRIE   FAIR      61  45  55 NW5       30.20F
LITTLE FALLS   MOSUNNY   63  45  51 N5        30.19F
LITCHFIELD     SUNNY     64  46  52 N9        30.19F
BUFFALO        SUNNY     63  43  48 N9        30.19F
MAPLE LAKE     SUNNY     64  48  56 N6        30.19F
$$
MNZ037-044-045-052-053-071700-
   East Central Minnesota

CITY           SKY/WX    TMP DP  RH WIND       PRES   REMARKS
PRINCETON      MOSUNNY   64  46  52 N7        30.18F
MORA           MOSUNNY   61  45  55 CALM      30.19S
CAMBRIDGE      SUNNY     64  48  55 N7        30.16S
MOOSE LAKE     MOSUNNY   61  43  51 CALM      30.15S
HINCKLEY       PTSUNNY   63  46  55 CALM      30.17S
CLOQUET        MOSUNNY   63  43  48 N6        30.16S
MCGREGOR       MOSUNNY   63  43  48 N10       30.18S
$$
MNZ071>073-080-081-089-090-097-098-071700-
   Southwest Minnesota

CITY           SKY/WX    TMP DP  RH WIND       PRES   REMARKS
MONTEVIDEO     SUNNY     66  48  52 NE9         N/A
GRANITE FALLS  PTSUNNY   63  47  56 N8        30.22S
CANBY          MOSUNNY   62  46  55 E7        30.22S
MARSHALL       SUNNY     63  43  48 E13       30.20S
REDWOOD FALLS  MOSUNNY   64  44  48 N12G18    30.19F
OLIVIA         MOSUNNY   61  41  48 NE7       30.19S
PIPESTONE      MOSUNNY   61  46  59 E7        30.21S
WINDOM         SUNNY     61  45  55 N12G20    30.20S
WORTHINGTON    MOSUNNY   61  46  59 NE13      30.20F
JACKSON        SUNNY     61  46  59 N12       30.19F
TRACY          MOSUNNY   62  48  60 NE9G18    30.21S
SLAYTON        SUNNY     60  46  60 NE3       30.22S
$$
MNZ065>067-074>077-082>085-091>093-071700-
   South Central Minnesota

CITY           SKY/WX    TMP DP  RH WIND       PRES   REMARKS
MANKATO        MOSUNNY   61  45  55 N14       30.17F
NEW ULM        SUNNY     61  45  55 NE15      30.18S
ST JAMES         N/A     63  48  59 N13       30.19F
FAIRMONT       PTSUNNY   61  45  55 N10       30.18S
GLENCOE        SUNNY     63  46  55 NE8       30.18S
OWATONNA       MOSUNNY   61  45  55 N14       30.16S
WASECA         PTSUNNY   59  45  58 N8        30.18S
ALBERT LEA     PTSUNNY   61  46  59 N12       30.15S
$$
MNZ078>079-086>088-094>096-071700-
   Southeast Minnesota

CITY           SKY/WX    TMP DP  RH WIND       PRES   REMARKS
ROCHESTER      CLOUDY    59  46  62 N14       30.16R
RED WING       MOSUNNY   64  43  45 N12       30.13F
DODGE CENTER   CLOUDY    59  46  63 N10       30.16R
WINONA         CLOUDY    61  45  55 N7        30.14R
AUSTIN         CLOUDY    61  46  59 N10       30.14S
PRESTON        CLOUDY    58  45  63 N14G22    30.14S
$$
ABBREVIATIONS USED IN REMARKS
   TC - TEMPERATURES IN CELSIUS
  WCI - WIND CHILL INDEX
   HX - HEAT INDEX
  VSB - VISIBILITY
$$


USA.gov is the U.S. government's official web portal to all federal, state and local government web resources and services.